Погода в Сектагли

Погода в Сектагли : погода сейчас, прогноз погоды и архив. Всё, что Вы хотите узнать о погоде в Сектагли!

Поиск расширенной информации на нашем сайте:

Другие новости

Новости СМИ2

Главная страница сайта

Новости сайта

03.07.2017

Напоминаем, что на нашем специализированном сайте Метеоцентр.Азия вы можете получить высокодетализированные автоматические прогнозы погоды по пунктам России, СНГ и мира в авиационном формате (включающие направление и скорость ветра, видимость, явления погоды, количество и форму облачности, нижнюю и верхнюю границу облачности).


Погода в Сектагли - сегодня

Время (UTC), дата Ветер
(°,м/с) 
Видим.   Явления Облачность Т
(°С)
Тd
(°С)
f(%) Тe
(°С)
Pmin
(гПа)
dP
(гПа)
Po
(мм)
O2
(г/м3)
Тmin Tmax R s Состояние
почвы
00 17.02.18 тихо ()   20000 м    ясно 
-29.2 -30.9 85 -29  1017.4  1.6  735  333  -32.6         
03 17.02.18 090 (В) 20000 м    ясно 
-20.1 -23.4 75 -20  1016.7  0.6  735  321           
06 17.02.18 180 (Ю) 20000 м    ясно 
-13.2 -20.3 55 -13  1014.9  -0.7  734  312           
09 17.02.18 230 (ЮЗ) 20000 м    ясно 
-15.7 -21.7 60 -18  1017.5  2.1  736  316    -12.8       
12 17.02.18 270 (З) 20000 м    ясно 
-18.8 -22.9 70 -23  1020.3  2.2  738  321           
15 17.02.18 тихо ()   20000 м    ясно 
-24.8 -26 90 -25  1022.2  738  329           
18 17.02.18 тихо ()   20000 м    ясно 
-28.7 -29.9 89 -29  1023.8  739  335           
00 18.02.18 тихо ()   20000 м    ясно 
-28.3 -29.4 90 -28  1025  0.4  740  335  -32.3         
03 18.02.18 тихо ()   20000 м    ясно 
-18 -22.1 70 -18  1021.8  -1.5  739  320           
09 18.02.18 230 (ЮЗ) 20000 м    ясно 
-14.7 -19.8 65 -15  1019  737  315    -11       
12 18.02.18 тихо ()   20000 м    ясно 
-21 -23.5 80 -21  1020.4  0.5  738  324           
15 18.02.18 тихо ()   20000 м    6/0 верхняя 
[Cs]
-25 -25.6 95 -25  1020.4  -0.6  737  329           
18 18.02.18 тихо ()   20000 м    8/0 верхняя 
[Cs]
-27 -27.6 95 -27  1019.9  -0.7  737  331           
00 19.02.18 тихо ()   20000 м    3/0 верхняя 
[Cs]
-26.9 -28.7 85 -27  1019.2  -0.2  736  331           
03 19.02.18 090 (В) 20000 м    ясно 
-17.4 -22.4 65 -18  1016.7  -1  739  319           
06 19.02.18 230 (ЮЗ) 20000 м    ясно 
-13.2 -21.4 50 -15  1014.6  -1.4  734  312           
12 19.02.18 тихо ()   20000 м    3/0 верхняя 
[Ci fib]
-22.5 -25 80 -23  1017.3  735  325           
15 19.02.18 тихо ()   20000 м    ясно 
-27.7 -29.5 84 -28  1017.9  -0.5  735  331           
18 19.02.18 тихо ()   20000 м    ясно 
-29.6 -31.3 85 -30  1017.4  -0.5  734  334           
00 20.02.18 тихо ()   20000 м    9/0 верхняя 
[Ci fib]
-27.7 -30 81 -28  1016.7    734  331           
03 20.02.18 230 (ЮЗ) 20000 м    6/0 верхняя 
[Ci fib]
-19.1 -23.2 70 -19  1015.4  -0.2  734  320           
06 20.02.18 270 (З) 20000 м    3/0 верхняя 
[Ci fib]
-15.3 -24.6 45 -19  1014.4  -0.5  734  315           
09 20.02.18 230 (ЮЗ) 20000 м    ясно 
-18.2 -26.1 50 -18  1016.8  1.9  735  319    -15       
12 20.02.18 тихо ()   20000 м    ясно 
-23.8 -26.3 80 -24  1018.8  1.1  736  327           
15 20.02.18 тихо ()   20000 м    ясно 
-27.3 -29.2 84 -27  1018.7  -0.6  736  331           
Время (UTC), дата Ветер
(°,м/с) 
Видим.   Явления Облачность Т
(°С)
Тd
(°С)
f(%) Тe
(°С)
Pmin
(гПа)
dP
(гПа)
Po
(мм)
O2
(г/м3)
Тmin Tmax R s Состояние
почвы

Для получения пояснительной информации подведите курсор к названию столбца.

ПОГОДА в Сектагли - архив

Всё, что Вы хотите узнать о погоде в Сектагли - удобно и подробно!

Выберите нужную дату (начиная с 1 января 2015* года) и нажмите кнопку "Найти".
Будут отображены архивные сводки погоды по пункту Сектагли, начиная с указанной даты.


Отображать данные в формате CSV (для использования в таблицах Excel)


Внимание! Наш архив погоды предназначен исключительно для личного некоммерческого использования в познавательных целях. Если Вам необходимы официальные справки о состоянии погоды (для производственных, юридических, коммерческих и т.п. целей), обращайтесь в органы Росгидромета.

*Примечание: данная дата относится к архиву по метеостанциям СССР (Россия, СНГ, Балтия).
Архив по метеостанциям Зарубежной Европы и Азии (кроме Китая) хранится 10 дней, по другим регионам земного шара (Китай, Африка, Америка, Австралия, Океания) - 1 день.

Сектагли - район местоположения метеостанции


Название, широта, долгота, высота метеостанции:
Сектагли 50.4°ш. 131°д. 230 м над ур. моря [Российская Федерация]

Дополнительная информация

В oтличие oт бoльшинства пoгoдных сайтoв мы публикуем пoдрoбную метеoинфoрмацию в детальнoм прoфессиoнальнoм фoрмате.

Характеристики температуры и влажнoсти вoздуха измеряются на высoте 2 м в тени вдали oт зданий и деревьев.
Скoрoсть ветра измеряется на высoте 10 м (на урoвне рoста челoвека скoрoсть ветра ниже в 1.5-2 раза). Если метеoстанция нахoдится в гoрoде или в лесу, тo скoрoсть ветра занижена на 2-4 м/с пo сравнению с oткрытым местoм. Скoрoсть ветра над акватoриями крупных рек и oзёр, а также на вершинах хoлмoв на 2-5 м/с выше, чем в oбычных услoвиях.
Атмoсфернoе давление в разных тoчках местнoсти мoжет значительнo oтличаться oт давления на метеoстанции, в зависимoсти oт услoвий рельефа (при пoдъёме на 10 м давление пoнижается примернo на 1 мм рт.ст.).